This is the latest recevied weather packets stored in our database for station/object CA3EAP-13. If no packets are shown the sender has not sent any weather packets the latest 10 day(s).
| Time | Temp. | Humidity | Pressure | Rain* | Wind** | Luminosity | Snow |
|---|---|---|---|---|---|---|---|
| 1777457104 | 17.78° C | 65% | 1014.9 hPa | - | - | - | - |
| 1777456504 | 17.78° C | 66% | 1014.9 hPa | - | - | - | - |
| 1777455904 | 17.22° C | 66% | 1014.9 hPa | - | - | - | - |
| 1777455304 | 17.22° C | 68% | 1014.9 hPa | - | - | - | - |
| 1777454704 | 16.67° C | 69% | 1015 hPa | - | - | - | - |
| 1777454104 | 17.22° C | 67% | 1014.8 hPa | - | - | - | - |
| 1777453504 | 17.78° C | 65% | 1014.7 hPa | - | - | - | - |
| 1777452904 | 17.78° C | 64% | 1014.7 hPa | - | - | - | - |
| 1777452304 | 17.78° C | 63% | 1014.6 hPa | - | - | - | - |
| 1777451704 | 18.33° C | 61% | 1014.4 hPa | - | - | - | - |
| 1777451104 | 18.33° C | 61% | 1014.4 hPa | - | - | - | - |
| 1777450504 | 18.33° C | 60% | 1014.3 hPa | - | - | - | - |
| 1777449904 | 18.33° C | 61% | 1014.4 hPa | - | - | - | - |
| 1777449304 | 18.33° C | 62% | 1014.7 hPa | - | - | - | - |
| 1777448704 | 18.33° C | 61% | 1014.8 hPa | - | - | - | - |
| 1777448104 | 18.33° C | 61% | 1014.8 hPa | - | - | - | - |
| 1777447504 | 18.33° C | 61% | 1014.8 hPa | - | - | - | - |
| 1777446904 | 18.89° C | 59% | 1014.8 hPa | - | - | - | - |
| 1777446304 | 18.89° C | 59% | 1014.8 hPa | - | - | - | - |
| 1777445704 | 18.89° C | 59% | 1014.9 hPa | - | - | - | - |
| 1777445104 | 18.89° C | 59% | 1015 hPa | - | - | - | - |
| 1777444504 | 18.89° C | 58% | 1015 hPa | - | - | - | - |
| 1777443904 | 19.44° C | 58% | 1015.1 hPa | - | - | - | - |
| 1777443304 | 18.89° C | 59% | 1015.3 hPa | - | - | - | - |
| 1777442704 | 18.89° C | 59% | 1015.5 hPa | - | - | - | - |
* Rain since midnight (hover to see other rain measurements)
** Current wind speed in m/s (hover to see current wind gust speed)